Weather in Stepnoye

Russia / Chelyabinsk Oblast     54°04′40″N   60°24′16″E
temp.,
°C
wind,
m/s
gust,
m/s
humid.,
%
clouds,
%
prec.,
mm/h
press.,
hPa
HPBL,
m
10 april, sat
sat1023:00+2se11100100 0.0 103111
02:00+2s1299100 0.0 103121
05:00+2s2399100 0.0 103385
08:00+2sse25100100 0.0 1034140
11:00+3s25100100 0.0 1035261
14:00+4s25100100 0.0 1036205
17:00+4sse35100100 0.0 1037182
20:00+2s2499100 0.0 103897
11 april, sun
sun1123:00+1s2395100 0.0 103849
02:000s2395100 0.0 103861
05:00−1s379620 0.0 1039170
08:00+1ssw4795100 0.0 1039321
11:00+4ssw578882 0.0 1038429
14:00+8ssw578085 0.0 1037500
17:00+9sw4881100 0.0 1036490
20:00+4sw3894100 0.0 1037152
12 april, mon
mon1223:00+3sw388920 0.0 1037126
02:00+2sw37845 0.0 103799
05:00+2wsw34795 0.0 103756
08:00+4wsw247445 0.0 103698
11:00+10w226451 0.0 1036265
14:00+13sw1157100 0.0 1035545
17:00+14n1157100 0.0 1034647
20:00+11ne2274100 0.0 103524
13 april, tue
tue1323:00+8e237494 0.0 103627
02:00+7ene228055 0.0 103612
05:00+5e229531 0.0 103713
08:00+7ene12937 0.0 103888
11:00+11se227833 0.0 1037487
14:00+14sse236637 0.0 1035943
17:00+15s236020 0.0 10341138
20:00+12sse22755 0.0 103422
14 april, wed
wed1423:00+10s33827 0.0 103430
02:00+9ssw3387100 0.0 103337
05:00+8sw33895 0.0 103243
08:00+9wsw24845 0.0 1032131
11:00+14wsw22599 0.0 1030468
14:00+17wsw21495 0.0 1028890
17:00+18wnw22465 0.0 10271158
20:00+14n00595 0.0 102611